Portada
METAR-TAF:

METAR-TAF

Aeroports :

Hughenden, Austràlia

latitud: 20-48-54S, longitud: 144-13-30E, altitud: 318 m

Observació

L'informe es va fer fa 1 hora i 13 minuts, a les 05:00 UTC
Vent 4 kt del Oest, variant entre Sud-Oest i Oest
Temperatura 36°C
Humitat 25%
Pressió 1006 hPa
Visibilitat 10 km o més

METAR: YHUG 280500Z AUTO 26004KT 220V280 9999 // NCD 36/13 Q1006

Hora: 16:13 (06:13 UTC)


TAF: manca

Observacions i pronòstics meteorològics de més de 4000 aeroports (METAR i TAF).

Les estacions disponibles són els punts grocs i vermells al mapa.

Posi el ratolí al punt desitjat per veure el nom de l'estació.

Feu clic per veure les observacions i els pronòstics meteorològics.

Per canviar el mapa: feu clic els botons verds amb una creu de color negre per apropar; al botó verd amb un guió per allunyar la imatge; o en les fletxes verdes per a mapes adjacents.


METAR-TAF: